Location: Easter Hill Village
(37.9235°N, 122.3444°W)
Time: 18:48:37
(UTC+00:00)

Cosmos 2369 Rocket - Pass Details

Date: 16 September 2019
Orbit: 830 x 851 km, 71.0° (Epoch: 22 October)

Event Time Altitude Azimuth Distance (km) Brightness Sun altitude
Exits shadow 13:16:24 - 275° (W) 2,607 4.1 -7.8°
Reaches altitude 10° 13:17:07 10° 281° (W) 2,476 4.0 -7.6°
Maximum altitude 13:19:50 14° 310° (NW) 2,232 4.0 -7.1°
Drops below altitude 10° 13:22:35 10° 339° (NNW) 2,476 4.5 -6.6°
Sets 13:26:28 0° 5° (N) 3,411 5.5 -5.8°
